User: anonymous   Login
Location: Tierra Monte Subdivision
(35.2092°N, 106.4864°W)
Time: 02:13:54
(UTC+00:00)
Language:

CZ-2C R/B - Orbit

View from above orbital plane
View from above orbital plane
View from above satellite
View from above satellite

Ground track
Ground track

The orbit data is extracted from the following two-line orbital elements,

1 31114U 07010B   20192.49816452 -.00000054 +00000-0 -65304-5 0  9995
2 31114 098.2594 043.8249 0059206 198.9968 160.9002 14.19324361686272
Epoch (UTC): 10 July 2020 11:57:21
Eccentricity: 0.0059206
inclination: 98.2594°
perigee height: 785 km
apogee height: 870 km
right ascension of ascending node: 43.8249°
argument of perigee: 198.9968°
revolutions per day: 14.19324361
mean anomaly at epoch: 160.9002°
orbit number at epoch: 68627

The dashed part of the orbit path shows where the satellite is in the earth's shadow,  

DLR